Ten. Cel. Aviador César Bombonato Airport
SBUL : rendu visible

Aérodrome :











RETROUVEZ-NOUS SUR...

 
LOGIN :

S'inscrire | Disclaimer

   EN    FR    IT 

 









Légende :    VFR   VFR Marginal   IFR   IFR Intensif   IFR Très Intensif
Visi : 
Plafond : 
>= 8 km
>= 3000ft
5 à 8 km
1000 à 3000 ft
1500m à 5 km
500 à 1000 ft
800 à 1500m
200 à 500 ft
< 800m
< 200 ft
Symboles :   Orages  Brouillard  Fortes neiges  Fortes précipitations  Vent > 20 kt






- Altitude de l'aérodrome : 3094 ft
- Code IATA : UDI


SBUL - Ten. Cel. Aviador César Bombonato

DERNIER METAR :
  • 270800Z 03009KT CAVOK 21/08 Q1015

METARs EXPIRÉS :
  • 270700Z 05007KT CAVOK 21/08 Q1015
  • 270600Z 06007KT CAVOK 21/08 Q1015

TAF TAF SBUL
Valide du 27 à 06h jusqu'au 27 à 18h UTC


270130Z 2706/2718 05005KT CAVOK TN20/2709Z TX34/2717Z
BECMG 2709/2711 02012KT
BECMG 2713/2715 34010KT RMK PGN
FIR SBBS / Amérique du Sud



MET'MAP, la Météo Aéronautique d'un coup d'oeil ! - Copyright ORBIFLY Décembre 2007 - Disclaimer

ORBIFLY MET'MAP TEAM :

Programmation & Développement : Alexandra Zaïnal
Sur une idée originale de : Baudouin d'Aumeries
Assistance à la programmation : Marc-Olivier Méhu
Soutien technique & logistique : Manuel Goepfert

Contact : metmap@orbifly.com




SOURCES & CREDITS :

   NOAA       Earth
Advisory